Location: Hamilton
(37.7830°S, 175.2830°E)
Time: 23:38:48
(UTC+13:00)

SL-16 R/B - Visible Passes

Search period start: 17 October 2019 00:00
Search period end: 27 October 2019 00:00
Orbit: 842 x 846 km, 71.0° (Epoch: 15 October)

Date Brightness Start Highest point End Pass type
(mag) Time Alt. Az. Time Alt. Az. Time Alt. Az.
17 Oct 4.6 00:38:36 10° S 00:40:06 18° S 00:40:06 18° S visible
18 Oct 4.5 00:24:19 10° S 00:26:03 19° S 00:26:03 19° S visible
19 Oct 4.4 00:10:03 10° S 00:12:01 21° S 00:12:01 21° S visible
19 Oct 4.3 23:55:46 10° S 23:58:00 22° S 23:58:00 22° S visible
20 Oct 4.1 23:41:30 10° S 23:44:00 24° S 23:44:00 24° S visible
21 Oct 4.0 23:27:14 10° S 23:30:02 25° SSE 23:30:02 25° SSE visible
22 Oct 4.9 01:11:34 10° SW 01:11:54 11° SW 01:11:54 11° SW visible
22 Oct 3.8 23:12:58 10° S 23:16:05 27° SSE 23:16:05 27° SSE visible
23 Oct 4.8 00:57:12 10° SW 00:57:57 13° SW 00:57:57 13° SW visible
23 Oct 3.7 22:58:41 10° S 23:02:10 28° SSE 23:02:10 28° SSE visible
24 Oct 4.6 00:42:52 10° SW 00:44:02 15° SW 00:44:02 15° SW visible
24 Oct 3.6 22:44:25 10° S 22:48:16 29° SE 22:48:16 29° SE visible
25 Oct 4.5 00:28:31 10° SW 00:30:08 18° SW 00:30:08 18° SW visible
25 Oct 3.4 22:30:09 10° S 22:34:24 30° SE 22:34:24 30° SE visible
26 Oct 4.3 00:14:09 10° SW 00:16:16 21° SW 00:16:16 21° SW visible
26 Oct 3.4 22:15:53 10° S 22:20:33 30° SE 22:20:33 30° SE visible
